Hourly Data Report for October 29, 2016

All times are specified in Local Standard Time (LST). Add 1 hour to adjust for Daylight Saving Time where and when it is observed.

PETAWAWA AWOS 2
ONTARIO

45°57'00.000" N
77°19'00.000" W
130.10 m
6106396
71625
YWA

Download Data

Hourly Data (October 2016)
Hourly Data Report for October 29, 2016
Temp Definition
°C
Dew Point Temp Definition
°C
Rel Hum Definition
%
Wind Dir Definition
10's deg

Wind Spd Definition
km/h
Visibility Definition
km
Stn Press Definition
kPa
Hmdx Definition


Wind Chill Definition


Weather Definition


TIME
00:00 2.3 2.3 100 12 20 5.6 100.15     Rain
01:00 2.7 2.6 99 14 26 14.5 99.94     Rain
02:00 2.4 2.3 99 12 24 14.5 99.84     Rain
03:00 2.6 2.4 99 14 24 5.6 99.73     Rain
04:00 3.0 2.9 99 13 17 4.0 99.67     Rain
05:00 2.9 2.8 99 13 19 3.4 99.58     Rain
06:00 3.4 3.4 100 14 19 5.6 99.48     Drizzle
07:00 3.8 3.8 100 13 20 4.0 99.36     Drizzle
08:00 3.9 3.9 100 14 19 6.4 99.30     Drizzle
09:00 4.1 4.1 100 12 15 5.6 99.20     Drizzle
10:00 4.3 4.3 100 12 17 4.8 99.14     Drizzle
11:00 4.4 4.4 100 13 19 4.8 99.05     Drizzle
12:00 4.6 4.6 100 14 15 4.0 98.97     Drizzle
13:00 5.0 5.0 100 15 11 5.6 98.90     LegendNANA
14:00 5.7 5.7 100 17 7 2.6 98.94     Drizzle
15:00 5.9 5.9 100   0 6.4 98.99     Drizzle
16:00 6.0 6.0 100 26 4 5.6 99.09     LegendNANA
17:00 5.8 5.8 100 27 6 12.9 99.21     LegendNANA
18:00 5.8 5.8 100 25 4 14.5 99.36     LegendNANA
19:00 6.8 6.8 100 31 7 14.5 99.48     LegendNANA
20:00 7.4 6.5 94 32 17 14.5 99.61     Drizzle
21:00 7.0 5.5 90 32 17 14.5 99.67     LegendNANA
22:00 6.5 5.2 91 32 9 14.5 99.70     LegendNANA
23:00 6.3 4.6 89 32 15 14.5 99.73     LegendNANA

Notes on Data Quality.

Legend

  • E = Estimated
  • M = Missing
  • NA = Not Available
  • ‡ = Partner data that is not subject to review by the National Climate Archives
Date modified: